| time (UTC) | temp F | wind direction | speed knots | gust knots | rain 1hr in | rain 24hr in | rain mn in | humidity % | barometer mb |
| 20260506192646 | 60 | 243 | 4.3 | 8.7 | 0.01 | 0.28 | 0.28 | 96 | 1006.1 |
| 20260506192142 | 60 | 255 | 4.3 | 9.6 | 0.01 | 0.28 | 0.28 | 96 | 1006.1 |
| 20260506191639 | 59 | 237 | 4.3 | 9.6 | 0.02 | 0.28 | 0.28 | 96 | 1006.1 |
| 20260506191135 | 59 | 249 | 5.2 | 9.6 | 0.02 | 0.28 | 0.28 | 96 | 1006.1 |
| 20260506190632 | 59 | 175 | 5.2 | 13.0 | 0.02 | 0.28 | 0.28 | 96 | 1006.5 |
| 20260506190129 | 59 | 248 | 5.2 | 13.0 | 0.03 | 0.28 | 0.28 | 95 | 1006.5 |
| 20260506185626 | 59 | 253 | 4.3 | 10.4 | 0.03 | 0.28 | 0.28 | 95 | 1006.5 |
| 20260506185122 | 59 | 243 | 5.2 | 10.4 | 0.04 | 0.28 | 0.28 | 95 | 1006.5 |
| 20260506184620 | 59 | 261 | 5.2 | 12.2 | 0.04 | 0.28 | 0.28 | 95 | 1006.8 |
| 20260506184117 | 59 | 251 | 5.2 | 12.2 | 0.05 | 0.28 | 0.28 | 95 | 1006.8 |
| 20260506183614 | 59 | 258 | 4.3 | 12.2 | 0.05 | 0.28 | 0.28 | 95 | 1006.8 |
| 20260506183109 | 59 | 253 | 4.3 | 12.2 | 0.05 | 0.27 | 0.27 | 95 | 1006.8 |
| 20260506182607 | 59 | 319 | 4.3 | 12.2 | 0.05 | 0.27 | 0.27 | 95 | 1006.8 |
| 20260506182104 | 59 | 248 | 3.5 | 8.7 | 0.06 | 0.27 | 0.27 | 95 | 1006.8 |
| 20260506181602 | 59 | 162 | 3.5 | 10.4 | 0.05 | 0.26 | 0.26 | 95 | 1006.8 |
| 20260506181059 | 59 | 259 | 4.3 | 10.4 | 0.06 | 0.26 | 0.26 | 95 | 1007.2 |
| 20260506180555 | 59 | 270 | 4.3 | 10.4 | 0.06 | 0.26 | 0.26 | 95 | 1007.2 |
| 20260506180052 | 59 | 242 | 3.5 | 7.0 | 0.06 | 0.25 | 0.25 | 95 | 1007.2 |
| 20260506175548 | 59 | 226 | 3.5 | 10.4 | 0.07 | 0.25 | 0.25 | 95 | 1007.2 |
| 20260506175045 | 59 | 266 | 2.6 | 10.4 | 0.07 | 0.24 | 0.24 | 94 | 1007.2 |
| 20260506174544 | 59 | 251 | 1.7 | 6.1 | 0.07 | 0.24 | 0.24 | 94 | 1007.2 |
| 20260506174039 | 59 | 280 | 1.7 | 7.0 | 0.06 | 0.23 | 0.23 | 94 | 1007.2 |
| 20260506173537 | 59 | 209 | 1.7 | 7.0 | 0.06 | 0.23 | 0.23 | 94 | 1007.2 |
| 20260506173034 | 60 | 102 | 2.6 | 8.7 | 0.05 | 0.22 | 0.22 | 94 | 1007.2 |
| 20260506172531 | 60 | 224 | 2.6 | 8.7 | 0.05 | 0.22 | 0.22 | 94 | 1007.2 |
| 20260506172027 | 60 | 250 | 2.6 | 9.6 | 0.05 | 0.21 | 0.21 | 94 | 1007.2 |
| 20260506171525 | 60 | 238 | 3.5 | 9.6 | 0.05 | 0.21 | 0.21 | 94 | 1007.2 |
| 20260506171022 | 60 | 96 | 2.6 | 7.8 | 0.04 | 0.20 | 0.20 | 94 | 1007.5 |
| 20260506170520 | 60 | 223 | 2.6 | 7.0 | 0.04 | 0.20 | 0.20 | 94 | 1007.2 |
| 20260506170012 | 60 | 132 | 1.7 | 7.0 | 0.03 | 0.19 | 0.19 | 94 | 1007.2 |
| 20260506165510 | 60 | 240 | 2.6 | 7.8 | 0.03 | 0.18 | 0.18 | 93 | 1007.5 |
| 20260506165005 | 59 | 263 | 3.5 | 8.7 | 0.02 | 0.17 | 0.17 | 93 | 1007.2 |
| 20260506164502 | 60 | 205 | 2.6 | 11.3 | 0.04 | 0.17 | 0.17 | 93 | 1007.2 |
| 20260506164000 | 60 | 142 | 2.6 | 11.3 | 0.06 | 0.17 | 0.17 | 93 | 1007.5 |
| 20260506163455 | 60 | 75 | 2.6 | 8.7 | 0.07 | 0.17 | 0.17 | 93 | 1007.2 |
| 20260506162950 | 60 | 37 | 2.6 | 7.8 | 0.08 | 0.17 | 0.17 | 93 | 1007.5 |
| 20260506162449 | 60 | 252 | 2.6 | 9.6 | 0.10 | 0.17 | 0.17 | 93 | 1007.2 |
| 20260506161945 | 60 | 279 | 2.6 | 9.6 | 0.09 | 0.16 | 0.16 | 93 | 1007.5 |
| 20260506161443 | 60 | 160 | 2.6 | 7.8 | 0.09 | 0.16 | 0.16 | 93 | 1007.5 |
| 20260506160935 | 60 | 230 | 1.7 | 7.0 | 0.09 | 0.16 | 0.16 | 93 | 1007.2 |
| 20260506160432 | 60 | 96 | 2.6 | 7.8 | 0.09 | 0.16 | 0.16 | 92 | 1007.5 |
| 20260506155929 | 60 | 214 | 2.6 | 7.8 | 0.09 | 0.15 | 0.15 | 92 | 1007.2 |
| 20260506155426 | 60 | 153 | 2.6 | 8.7 | 0.09 | 0.15 | 0.15 | 92 | 1007.5 |
| 20260506153548 | 60 | 227 | 2.6 | 7.8 | 0.06 | 0.10 | 0.10 | 92 | 1008.2 |
| 20260506153046 | 60 | 252 | 1.7 | 7.8 | 0.05 | 0.09 | 0.09 | 91 | 1008.5 |
| 20260506152543 | 61 | 142 | 2.6 | 9.6 | 0.05 | 0.08 | 0.08 | 91 | 1008.5 |
| 20260506152041 | 61 | 301 | 2.6 | 8.7 | 0.05 | 0.07 | 0.07 | 91 | 1008.5 |
| 20260506151539 | 61 | 106 | 1.7 | 8.7 | 0.06 | 0.07 | 0.07 | 91 | 1008.2 |
| 20260506151035 | 61 | 110 | 1.7 | 7.0 | 0.06 | 0.07 | 0.07 | 91 | 1008.2 |
| 20260506150532 | 61 | 149 | 0.9 | 5.2 | 0.06 | 0.07 | 0.07 | 91 | 1008.2 |
| 20260506150029 | 61 | 139 | 0.9 | 4.3 | 0.05 | 0.06 | 0.06 | 91 | 1008.2 |
| 20260506145525 | 61 | 165 | 0.9 | 4.3 | 0.05 | 0.06 | 0.06 | 90 | 1008.2 |
| 20260506145023 | 61 | 240 | 0.9 | 4.3 | 0.05 | 0.06 | 0.06 | 90 | 1008.2 |
| 20260506144519 | 61 | 291 | 0.9 | 4.3 | 0.05 | 0.05 | 0.05 | 90 | 1008.2 |
| 20260506144017 | 61 | 269 | 1.7 | 6.1 | 0.05 | 0.05 | 0.05 | 90 | 1008.2 |
| 20260506143514 | 61 | 261 | 1.7 | 6.1 | 0.04 | 0.04 | 0.04 | 89 | 1008.2 |
| 20260506143013 | 61 | 321 | 2.6 | 7.8 | 0.04 | 0.04 | 0.04 | 89 | 1008.2 |
| 20260506142510 | 61 | 231 | 3.5 | 10.4 | 0.03 | 0.03 | 0.03 | 88 | 1008.2 |
| 20260506142008 | 62 | 245 | 3.5 | 10.4 | 0.02 | 0.02 | 0.02 | 88 | 1008.5 |
| 20260506141506 | 62 | 253 | 2.6 | 7.0 | 0.01 | 0.02 | 0.02 | 87 | 1008.2 |
| 20260506141004 | 62 | 246 | 3.5 | 8.7 | 0.01 | 0.01 | 0.01 | 87 | 1008.2 |
| 20260506140501 | 62 | 245 | 3.5 | 8.7 | 0.01 | 0.01 | 0.01 | 86 | 1008.2 |
| 20260506135957 | 62 | 238 | 2.6 | 7.8 | 0.01 | 0.01 | 0.01 | 86 | 1008.2 |
| 20260506135455 | 62 | 266 | 2.6 | 10.4 | 0.01 | 0.01 | 0.01 | 86 | 1008.2 |
| 20260506134951 | 62 | 258 | 3.5 | 9.6 | 0.00 | 0.00 | 0.00 | 86 | 1008.2 |
| 20260506134447 | 62 | 223 | 3.5 | 8.7 | 0.00 | 0.00 | 0.00 | 86 | 1008.2 |
| 20260506133944 | 62 | 247 | 3.5 | 8.7 | 0.00 | 0.00 | 0.00 | 85 | 1008.5 |
| 20260506133441 | 62 | 257 | 3.5 | 7.0 | 0.00 | 0.00 | 0.00 | 85 | 1008.5 |
| 20260506132938 | 62 | 268 | 4.3 | 9.6 | 0.00 | 0.00 | 0.00 | 85 | 1008.5 |
| 20260506132435 | 62 | 237 | 4.3 | 9.6 | 0.00 | 0.00 | 0.00 | 84 | 1008.5 |
| 20260506131932 | 62 | 242 | 5.2 | 9.6 | 0.00 | 0.00 | 0.00 | 84 | 1008.2 |
| 20260506131428 | 62 | 264 | 6.1 | 13.0 | 0.00 | 0.00 | 0.00 | 84 | 1008.5 |
| 20260506130925 | 63 | 129 | 6.1 | 14.8 | 0.00 | 0.00 | 0.00 | 83 | 1008.5 |
| 20260506130422 | 63 | 262 | 6.1 | 13.0 | 0.00 | 0.00 | 0.00 | 82 | 1008.5 |
| 20260506125920 | 63 | 184 | 5.2 | 13.0 | 0.00 | 0.00 | 0.00 | 81 | 1008.5 |
| 20260506125418 | 64 | 252 | 4.3 | 11.3 | 0.00 | 0.00 | 0.00 | 80 | 1008.5 |
| 20260506124916 | 64 | 249 | 6.1 | 15.6 | 0.00 | 0.00 | 0.00 | 79 | 1008.5 |
| 20260506124413 | 64 | 239 | 6.1 | 15.6 | 0.00 | 0.00 | 0.00 | 79 | 1008.5 |
| 20260506123911 | 64 | 274 | 6.1 | 13.9 | 0.00 | 0.00 | 0.00 | 78 | 1008.5 |
| 20260506123409 | 64 | 245 | 5.2 | 14.8 | 0.00 | 0.00 | 0.00 | 78 | 1008.5 |
| 20260506122906 | 64 | 226 | 3.5 | 14.8 | 0.00 | 0.00 | 0.00 | 78 | 1008.2 |
| 20260506122402 | 64 | 68 | 2.6 | 9.6 | 0.00 | 0.00 | 0.00 | 78 | 1008.2 |
| 20260506121901 | 64 | 101 | 2.6 | 7.8 | 0.00 | 0.00 | 0.00 | 78 | 1008.2 |
| 20260506121357 | 64 | 235 | 2.6 | 8.7 | 0.00 | 0.00 | 0.00 | 78 | 1008.2 |
| 20260506120854 | 64 | 150 | 2.6 | 11.3 | 0.00 | 0.00 | 0.00 | 78 | 1008.2 |
| 20260506120352 | 64 | 254 | 2.6 | 11.3 | 0.00 | 0.00 | 0.00 | 78 | 1008.2 |
| 20260506115849 | 64 | 217 | 2.6 | 9.6 | 0.00 | 0.00 | 0.00 | 78 | 1008.2 |
| 20260506115347 | 64 | 210 | 3.5 | 9.6 | 0.00 | 0.00 | 0.00 | 78 | 1008.2 |
| 20260506114845 | 64 | 245 | 2.6 | 9.6 | 0.00 | 0.00 | 0.00 | 78 | 1008.2 |
| 20260506114342 | 64 | 248 | 2.6 | 9.6 | 0.00 | 0.00 | 0.00 | 78 | 1008.2 |
| 20260506113841 | 64 | 253 | 3.5 | 9.6 | 0.00 | 0.00 | 0.00 | 78 | 1008.2 |
| 20260506113338 | 64 | 248 | 4.3 | 10.4 | 0.00 | 0.00 | 0.00 | 78 | 1008.2 |
| 20260506112835 | 64 | 227 | 3.5 | 12.2 | 0.00 | 0.00 | 0.00 | 78 | 1008.5 |
| 20260506112332 | 64 | 338 | 3.5 | 11.3 | 0.00 | 0.00 | 0.00 | 78 | 1008.5 |
| 20260506111829 | 64 | 257 | 2.6 | 11.3 | 0.00 | 0.00 | 0.00 | 78 | 1008.2 |
| 20260506111328 | 64 | 283 | 2.6 | 11.3 | 0.00 | 0.00 | 0.00 | 78 | 1008.2 |
| 20260506110825 | 64 | 276 | 2.6 | 11.3 | 0.00 | 0.00 | 0.00 | 78 | 1008.2 |
| 20260506110322 | 64 | 99 | 2.6 | 11.3 | 0.00 | 0.00 | 0.00 | 78 | 1008.2 |
| 20260506105819 | 64 | 32 | 2.6 | 11.3 | 0.00 | 0.00 | 0.00 | 78 | 1008.2 |
| 20260506105315 | 64 | 194 | 1.7 | 11.3 | 0.00 | 0.00 | 0.00 | 79 | 1008.2 |
| 20260506104812 | 64 | 233 | 0.9 | 7.0 | 0.00 | 0.00 | 0.00 | 79 | 1007.8 |
| 20260506104310 | 64 | 115 | 1.7 | 7.0 | 0.00 | 0.00 | 0.00 | 79 | 1007.8 |
| 20260506103808 | 63 | 11 | 1.7 | 6.1 | 0.00 | 0.00 | 0.00 | 79 | 1007.8 |
| 20260506103305 | 63 | 108 | 0.9 | 5.2 | 0.00 | 0.00 | 0.00 | 79 | 1007.8 |
| 20260506102802 | 63 | 194 | 0.9 | 4.3 | 0.00 | 0.00 | 0.00 | 79 | 1007.8 |
| 20260506102300 | 63 | 299 | 1.7 | 6.1 | 0.00 | 0.00 | 0.00 | 79 | 1007.8 |
| 20260506101757 | 63 | 254 | 0.9 | 6.1 | 0.00 | 0.00 | 0.00 | 79 | 1007.8 |
| 20260506101253 | 63 | 135 | 0.9 | 2.6 | 0.00 | 0.00 | 0.00 | 78 | 1007.8 |
| 20260506100751 | 64 | 221 | 0.9 | 3.5 | 0.00 | 0.00 | 0.00 | 78 | 1007.5 |
| 20260506100249 | 64 | 172 | 0.9 | 7.0 | 0.00 | 0.00 | 0.00 | 77 | 1007.8 |
| 20260506095748 | 64 | 28 | 1.7 | 7.0 | 0.00 | 0.00 | 0.00 | 77 | 1007.8 |
| 20260506095244 | 64 | 261 | 1.7 | 9.6 | 0.00 | 0.00 | 0.00 | 77 | 1008.2 |
| 20260506094740 | 64 | 347 | 2.6 | 9.6 | 0.00 | 0.00 | 0.00 | 77 | 1008.2 |
| 20260506094239 | 64 | 227 | 1.7 | 7.8 | 0.00 | 0.00 | 0.00 | 76 | 1007.8 |
| 20260506093737 | 64 | 257 | 1.7 | 7.0 | 0.00 | 0.00 | 0.00 | 76 | 1007.8 |
| 20260506093234 | 64 | 176 | 1.7 | 7.8 | 0.00 | 0.00 | 0.00 | 75 | 1007.8 |
| 20260506092732 | 64 | 120 | 2.6 | 9.6 | 0.00 | 0.00 | 0.00 | 75 | 1007.8 |
| 20260506092230 | 64 | 233 | 2.6 | 9.6 | 0.00 | 0.00 | 0.00 | 75 | 1007.8 |
| 20260506091727 | 64 | 233 | 1.7 | 9.6 | 0.00 | 0.00 | 0.00 | 75 | 1007.8 |
| 20260506091224 | 64 | 190 | 1.7 | 9.6 | 0.00 | 0.00 | 0.00 | 75 | 1007.8 |
| 20260506090722 | 64 | 255 | 1.7 | 8.7 | 0.00 | 0.00 | 0.00 | 74 | 1007.5 |
| 20260506090218 | 65 | 96 | 2.6 | 10.4 | 0.00 | 0.00 | 0.00 | 74 | 1007.8 |
| 20260506085715 | 65 | 275 | 2.6 | 8.7 | 0.00 | 0.00 | 0.00 | 73 | 1007.8 |
| 20260506085211 | 65 | 291 | 2.6 | 8.7 | 0.00 | 0.00 | 0.00 | 73 | 1007.8 |
| 20260506084708 | 65 | 258 | 2.6 | 8.7 | 0.00 | 0.00 | 0.00 | 73 | 1007.8 |
| 20260506084204 | 65 | 248 | 1.7 | 10.4 | 0.00 | 0.00 | 0.00 | 73 | 1008.2 |
| 20260506083701 | 65 | 139 | 1.7 | 10.4 | 0.00 | 0.00 | 0.00 | 72 | 1007.8 |
| 20260506083159 | 65 | 265 | 2.6 | 7.8 | 0.00 | 0.00 | 0.00 | 72 | 1007.8 |
| 20260506082656 | 65 | 269 | 2.6 | 9.6 | 0.00 | 0.00 | 0.00 | 72 | 1008.2 |
| 20260506082156 | 65 | 108 | 1.7 | 9.6 | 0.00 | 0.00 | 0.00 | 71 | 1008.2 |
| 20260506081655 | 65 | 249 | 2.6 | 7.8 | 0.00 | 0.00 | 0.00 | 71 | 1008.2 |
| 20260506081152 | 65 | 139 | 2.6 | 9.6 | 0.00 | 0.00 | 0.00 | 71 | 1008.2 |
| 20260506080650 | 65 | 269 | 2.6 | 9.6 | 0.00 | 0.00 | 0.00 | 71 | 1007.8 |
| 20260506080146 | 65 | 328 | 2.6 | 8.7 | 0.00 | 0.00 | 0.00 | 70 | 1007.8 |
| 20260506073130 | 65 | 259 | 2.6 | 7.0 | 0.00 | 0.00 | 0.00 | 69 | 1008.2 |
| 20260506072627 | 65 | 266 | 1.7 | 7.0 | 0.00 | 0.00 | 0.00 | 69 | 1008.2 |
| 20260506072125 | 65 | 242 | 1.7 | 7.0 | 0.00 | 0.00 | 0.00 | 68 | 1008.2 |
| 20260506071622 | 65 | 132 | 1.7 | 7.0 | 0.00 | 0.00 | 0.00 | 68 | 1008.2 |
| 20260506071120 | 65 | 220 | 1.7 | 7.0 | 0.00 | 0.00 | 0.00 | 68 | 1008.2 |
| 20260506070616 | 66 | 247 | 2.6 | 6.1 | 0.00 | 0.00 | 0.00 | 67 | 1008.2 |
| 20260506070114 | 66 | 252 | 2.6 | 8.7 | 0.00 | 0.00 | 0.00 | 67 | 1008.2 |
| 20260506062051 | 66 | 298 | 1.7 | 7.0 | 0.00 | 0.00 | 0.00 | 66 | 1008.5 |
| 20260506061546 | 66 | 221 | 1.7 | 7.0 | 0.00 | 0.00 | 0.00 | 65 | 1008.5 |
| 20260506061044 | 66 | 195 | 2.6 | 11.3 | 0.00 | 0.00 | 0.00 | 65 | 1008.5 |
| 20260506060543 | 67 | 271 | 3.5 | 11.3 | 0.00 | 0.00 | 0.00 | 65 | 1008.9 |
| 20260506051011 | 66 | 131 | 0.9 | 6.1 | 0.00 | 0.00 | 0.00 | 65 | 1008.9 |
| 20260506050509 | 65 | 101 | 0.9 | 3.5 | 0.00 | 0.00 | 0.00 | 66 | 1008.9 |
| 20260506044959 | 65 | 279 | 1.7 | 5.2 | 0.00 | 0.00 | 0.00 | 65 | 1009.3 |
| 20260506044458 | 65 | 261 | 0.9 | 5.2 | 0.00 | 0.00 | 0.00 | 65 | 1009.3 |
| 20260506043954 | 65 | 129 | 0.9 | 5.2 | 0.00 | 0.00 | 0.00 | 65 | 1009.3 |
| 20260506043451 | 65 | 242 | 0.0 | 3.5 | 0.00 | 0.00 | 0.00 | 65 | 1009.3 |
| 20260506042949 | 65 | 153 | 0.9 | 3.5 | 0.00 | 0.00 | 0.00 | 64 | 1009.3 |
| 20260506042448 | 66 | 131 | 0.9 | 3.5 | 0.00 | 0.00 | 0.00 | 64 | 1009.3 |
| 20260506041946 | 66 | 149 | 0.9 | 5.2 | 0.00 | 0.00 | 0.00 | 64 | 1009.3 |
| 20260506041443 | 66 | 22 | 0.9 | 5.2 | 0.00 | 0.00 | 0.00 | 63 | 1009.3 |
| 20260506040940 | 66 | 115 | 0.9 | 4.3 | 0.00 | 0.00 | 0.00 | 63 | 1009.3 |
| 20260506040438 | 66 | 199 | 0.9 | 4.3 | 0.00 | 0.00 | 0.00 | 63 | 1009.3 |
| 20260506035934 | 66 | 323 | 0.9 | 4.3 | 0.00 | 0.04 | 0.04 | 63 | 1009.3 |
| 20260506035431 | 66 | 323 | 0.9 | 3.5 | 0.00 | 0.04 | 0.04 | 62 | 1008.9 |
| 20260506034928 | 67 | 249 | 1.7 | 6.1 | 0.00 | 0.04 | 0.04 | 62 | 1009.3 |
| 20260506034425 | 67 | 180 | 0.9 | 6.1 | 0.00 | 0.04 | 0.04 | 62 | 1009.3 |
| 20260506033922 | 67 | 269 | 0.9 | 4.3 | 0.00 | 0.04 | 0.04 | 61 | 1009.3 |
| 20260506033419 | 67 | 75 | 0.9 | 5.2 | 0.00 | 0.04 | 0.04 | 61 | 1009.3 |
| 20260506032916 | 67 | 221 | 0.9 | 5.2 | 0.00 | 0.04 | 0.04 | 61 | 1008.9 |
| 20260506032413 | 67 | 129 | 0.9 | 2.6 | 0.00 | 0.04 | 0.04 | 61 | 1009.3 |
| 20260506031910 | 67 | 271 | 0.9 | 2.6 | 0.00 | 0.04 | 0.04 | 60 | 1008.9 |
| 20260506031407 | 67 | 145 | 0.9 | 2.6 | 0.00 | 0.04 | 0.04 | 60 | 1008.9 |
| 20260506030905 | 68 | 280 | 0.9 | 4.3 | 0.00 | 0.04 | 0.04 | 59 | 1009.3 |
| 20260506030403 | 68 | 272 | 0.9 | 5.2 | 0.00 | 0.04 | 0.04 | 59 | 1008.9 |
| 20260506025859 | 68 | 169 | 0.9 | 5.2 | 0.00 | 0.04 | 0.04 | 58 | 1008.9 |
| 20260506025356 | 68 | 307 | 0.9 | 3.5 | 0.00 | 0.04 | 0.04 | 58 | 1008.9 |
| 20260506024853 | 69 | 234 | 0.9 | 4.3 | 0.00 | 0.04 | 0.04 | 57 | 1008.9 |
| 20260506024350 | 69 | 235 | 0.9 | 7.0 | 0.00 | 0.04 | 0.04 | 56 | 1008.9 |
| 20260506023846 | 70 | 124 | 2.6 | 8.7 | 0.00 | 0.04 | 0.04 | 55 | 1009.3 |
| 20260506023343 | 70 | 283 | 3.5 | 8.7 | 0.00 | 0.04 | 0.04 | 55 | 1009.3 |
| 20260506022839 | 70 | 86 | 2.6 | 8.7 | 0.00 | 0.04 | 0.04 | 54 | 1009.3 |
| 20260506022337 | 70 | 137 | 2.6 | 7.8 | 0.00 | 0.04 | 0.04 | 54 | 1009.3 |
| 20260506021835 | 70 | 262 | 2.6 | 8.7 | 0.00 | 0.04 | 0.04 | 54 | 1008.9 |
| 20260506021332 | 71 | 242 | 1.7 | 8.7 | 0.00 | 0.04 | 0.04 | 53 | 1008.9 |
| 20260506020828 | 71 | 184 | 1.7 | 11.3 | 0.00 | 0.04 | 0.04 | 53 | 1008.9 |
| 20260506020326 | 71 | 273 | 1.7 | 11.3 | 0.00 | 0.04 | 0.04 | 53 | 1008.9 |
| 20260506015824 | 71 | 129 | 1.7 | 7.0 | 0.00 | 0.04 | 0.04 | 52 | 1008.9 |
| 20260506015321 | 71 | 234 | 1.7 | 7.0 | 0.00 | 0.04 | 0.04 | 52 | 1008.9 |
| 20260506014817 | 71 | 255 | 2.6 | 7.0 | 0.00 | 0.04 | 0.04 | 51 | 1008.9 |
| 20260506014314 | 71 | 231 | 2.6 | 7.0 | 0.00 | 0.04 | 0.04 | 51 | 1008.9 |
| 20260506013811 | 72 | 255 | 2.6 | 7.0 | 0.00 | 0.04 | 0.04 | 50 | 1008.9 |
| 20260506013308 | 72 | 283 | 2.6 | 7.8 | 0.00 | 0.04 | 0.04 | 50 | 1008.9 |
| 20260506012805 | 72 | 243 | 3.5 | 11.3 | 0.00 | 0.04 | 0.04 | 50 | 1008.5 |
| 20260506012307 | 72 | 245 | 2.6 | 11.3 | 0.00 | 0.04 | 0.04 | 50 | 1008.5 |
| 20260506011759 | 72 | 257 | 2.6 | 9.6 | 0.00 | 0.04 | 0.04 | 49 | 1008.5 |
| 20260506011255 | 72 | 224 | 2.6 | 9.6 | 0.00 | 0.04 | 0.04 | 49 | 1008.5 |
| 20260506010754 | 72 | 262 | 2.6 | 8.7 | 0.00 | 0.04 | 0.04 | 49 | 1008.2 |
| 20260506010251 | 73 | 295 | 3.5 | 8.7 | 0.00 | 0.04 | 0.04 | 49 | 1008.2 |
| 20260506005748 | 73 | 184 | 3.5 | 8.7 | 0.00 | 0.04 | 0.04 | 49 | 1008.2 |
| 20260506005245 | 73 | 257 | 3.5 | 14.8 | 0.00 | 0.04 | 0.04 | 49 | 1008.2 |
| 20260506004740 | 73 | 200 | 4.3 | 14.8 | 0.00 | 0.04 | 0.04 | 48 | 1008.2 |
| 20260506004238 | 73 | 79 | 3.5 | 13.0 | 0.00 | 0.04 | 0.04 | 48 | 1008.2 |
| 20260506003734 | 73 | 58 | 3.5 | 11.3 | 0.00 | 0.04 | 0.04 | 49 | 1008.2 |
| 20260506003231 | 73 | 142 | 2.6 | 8.7 | 0.00 | 0.04 | 0.04 | 49 | 1008.2 |
| 20260506002726 | 73 | 248 | 2.6 | 10.4 | 0.00 | 0.04 | 0.04 | 49 | 1007.8 |
| 20260506002223 | 73 | 260 | 2.6 | 10.4 | 0.00 | 0.04 | 0.04 | 49 | 1007.8 |
| 20260506001719 | 73 | 322 | 2.6 | 8.7 | 0.00 | 0.04 | 0.04 | 49 | 1007.8 |
| 20260506001217 | 73 | 84 | 2.6 | 8.7 | 0.00 | 0.04 | 0.04 | 48 | 1007.8 |
| 20260506000713 | 74 | 244 | 2.6 | 10.4 | 0.00 | 0.04 | 0.04 | 48 | 1007.8 |
| 20260506000212 | 74 | 224 | 3.5 | 13.9 | 0.00 | 0.04 | 0.04 | 47 | 1007.8 |
| 20260505235708 | 75 | 264 | 4.3 | 15.6 | 0.00 | 0.04 | 0.04 | 47 | 1007.8 |
| 20260505235206 | 75 | 195 | 4.3 | 15.6 | 0.00 | 0.04 | 0.04 | 47 | 1007.8 |
| 20260505234702 | 75 | 256 | 4.3 | 12.2 | 0.00 | 0.04 | 0.04 | 47 | 1007.8 |
| 20260505234200 | 75 | 239 | 3.5 | 12.2 | 0.00 | 0.04 | 0.04 | 47 | 1007.5 |
| 20260505233657 | 75 | 217 | 3.5 | 10.4 | 0.00 | 0.04 | 0.04 | 47 | 1007.5 |
| 20260505233155 | 75 | 252 | 2.6 | 8.7 | 0.00 | 0.04 | 0.04 | 46 | 1007.8 |
| 20260505232652 | 76 | 134 | 3.5 | 13.9 | 0.00 | 0.04 | 0.04 | 46 | 1007.5 |
| 20260505232150 | 76 | 8 | 5.2 | 13.9 | 0.00 | 0.04 | 0.04 | 45 | 1007.5 |
| 20260505231646 | 76 | 117 | 5.2 | 13.9 | 0.00 | 0.04 | 0.04 | 45 | 1007.5 |
| 20260505231145 | 76 | 252 | 7.0 | 22.6 | 0.00 | 0.04 | 0.04 | 45 | 1007.5 |
| 20260505230642 | 76 | 230 | 7.0 | 22.6 | 0.00 | 0.04 | 0.04 | 45 | 1007.5 |
| 20260505230138 | 76 | 273 | 4.3 | 13.0 | 0.00 | 0.04 | 0.04 | 45 | 1007.5 |
| 20260505225634 | 76 | 90 | 4.3 | 13.9 | 0.00 | 0.04 | 0.04 | 45 | 1007.5 |
| 20260505225131 | 77 | 155 | 4.3 | 14.8 | 0.00 | 0.04 | 0.04 | 45 | 1007.2 |
| 20260505224627 | 77 | 349 | 4.3 | 16.5 | 0.00 | 0.04 | 0.04 | 44 | 1007.2 |
| 20260505224125 | 78 | 214 | 6.1 | 17.4 | 0.00 | 0.04 | 0.04 | 44 | 1007.2 |
| 20260505223622 | 78 | 323 | 8.7 | 20.9 | 0.00 | 0.04 | 0.04 | 43 | 1007.2 |
| 20260505223118 | 78 | 214 | 8.7 | 20.9 | 0.00 | 0.04 | 0.04 | 41 | 1007.2 |
| 20260505222615 | 78 | 238 | 7.8 | 17.4 | 0.00 | 0.04 | 0.04 | 41 | 1007.2 |
| 20260505222111 | 78 | 176 | 7.0 | 17.4 | 0.00 | 0.04 | 0.04 | 42 | 1007.2 |
| 20260505221603 | 78 | 226 | 5.2 | 14.8 | 0.00 | 0.04 | 0.04 | 42 | 1007.2 |
| 20260505221059 | 78 | 121 | 5.2 | 14.8 | 0.00 | 0.04 | 0.04 | 42 | 1006.8 |
| 20260505220556 | 79 | 89 | 7.0 | 20.0 | 0.00 | 0.04 | 0.04 | 42 | 1007.2 |
| 20260505220054 | 79 | 83 | 6.1 | 20.0 | 0.00 | 0.04 | 0.04 | 41 | 1006.8 |
| 20260505215552 | 78 | 213 | 6.1 | 19.1 | 0.00 | 0.04 | 0.04 | 44 | 1006.8 |
| 20260505215050 | 78 | 89 | 5.2 | 19.1 | 0.00 | 0.04 | 0.04 | 43 | 1006.8 |
| 20260505214548 | 79 | 274 | 5.2 | 13.0 | 0.00 | 0.04 | 0.04 | 43 | 1006.8 |
| 20260505214044 | 80 | 231 | 7.0 | 16.5 | 0.00 | 0.04 | 0.04 | 42 | 1007.2 |
| 20260505213542 | 80 | 258 | 7.8 | 17.4 | 0.00 | 0.04 | 0.04 | 41 | 1007.2 |
| 20260505213038 | 80 | 219 | 7.8 | 17.4 | 0.00 | 0.04 | 0.04 | 41 | 1007.2 |
| 20260505212535 | 80 | 259 | 7.8 | 19.1 | 0.00 | 0.04 | 0.04 | 40 | 1006.8 |
| 20260505212032 | 80 | 241 | 7.0 | 19.1 | 0.00 | 0.04 | 0.04 | 39 | 1007.2 |
| 20260505211529 | 80 | 268 | 7.0 | 17.4 | 0.00 | 0.04 | 0.04 | 40 | 1006.8 |
| 20260505211026 | 80 | 93 | 7.8 | 18.2 | 0.00 | 0.04 | 0.04 | 41 | 1006.8 |
| 20260505210522 | 80 | 245 | 8.7 | 20.9 | 0.00 | 0.04 | 0.04 | 40 | 1006.8 |
| 20260505210020 | 80 | 231 | 7.8 | 20.9 | 0.00 | 0.04 | 0.04 | 39 | 1006.8 |
| 20260505205518 | 80 | 244 | 8.7 | 20.9 | 0.00 | 0.04 | 0.04 | 40 | 1006.8 |
| 20260505205015 | 80 | 44 | 9.6 | 20.9 | 0.00 | 0.04 | 0.04 | 41 | 1007.2 |
| 20260505204512 | 80 | 276 | 9.6 | 20.9 | 0.00 | 0.04 | 0.04 | 40 | 1006.8 |
| 20260505204009 | 80 | 208 | 8.7 | 20.9 | 0.00 | 0.04 | 0.04 | 41 | 1006.8 |
| 20260505203506 | 81 | 139 | 7.0 | 19.1 | 0.00 | 0.04 | 0.04 | 41 | 1006.8 |
| 20260505203003 | 80 | 181 | 6.1 | 19.1 | 0.00 | 0.04 | 0.04 | 40 | 1006.5 |
| 20260505202459 | 80 | 236 | 6.1 | 19.1 | 0.00 | 0.04 | 0.04 | 42 | 1006.8 |
| 20260505201955 | 80 | 211 | 7.0 | 19.1 | 0.00 | 0.04 | 0.04 | 43 | 1006.8 |
| 20260505201452 | 80 | 295 | 8.7 | 17.4 | 0.00 | 0.04 | 0.04 | 42 | 1006.8 |
| 20260505200949 | 80 | 266 | 9.6 | 23.5 | 0.00 | 0.04 | 0.04 | 41 | 1006.8 |
| 20260505200447 | 80 | 264 | 11.3 | 23.5 | 0.00 | 0.04 | 0.04 | 42 | 1007.2 |
| 20260505195943 | 80 | 258 | 12.2 | 22.6 | 0.00 | 0.04 | 0.04 | 42 | 1007.2 |
| 20260505195440 | 80 | 276 | 11.3 | 22.6 | 0.00 | 0.04 | 0.04 | 42 | 1006.8 |
| 20260505194937 | 80 | 122 | 8.7 | 21.7 | 0.00 | 0.04 | 0.04 | 42 | 1007.2 |
| 20260505194435 | 81 | 265 | 7.8 | 18.2 | 0.00 | 0.04 | 0.04 | 41 | 1007.2 |
| 20260505193934 | 80 | 105 | 8.7 | 15.6 | 0.00 | 0.04 | 0.04 | 42 | 1007.2 |
| 20260505193432 | 80 | 268 | 7.8 | 15.6 | 0.00 | 0.04 | 0.04 | 42 | 1007.2 |